Location: Brusselsch Zeekanaal
(50.8667°N, 4.3667°E)
Time: 06:11:02
(UTC+00:00)

Cosmos 2278 Rocket - Pass Details

Date: 08 November 2025
Orbit: 841 x 843 km, 71.0° (Epoch: 11 December)

Event Time Altitude Azimuth Distance (km) Brightness Sun altitude
Exits shadow 05:11:47 13° 320° (NW) 2,265 4.0 -15.1°
Maximum altitude 05:16:38 49° 249° (WSW) 1,085 2.4 -14.3°
Drops below altitude 10° 05:22:02 10° 176° (S) 2,454 4.8 -13.5°
Sets 05:24:32 0° 171° (S) 3,385 5.6 -13.1°
